User: anonymous   Login
Location: Caltech
(34.1382°N, 118.1253°W)
Time: 08:52:56
(UTC-07:00)
Language:

Cosmos 44 Rocket - Orbit

View from above orbital plane
View from above orbital plane
View from above satellite
View from above satellite

Ground track
Ground track

The orbit data is extracted from the following two-line orbital elements,

1 00877U 64053B   17233.15240075 -.00000037  00000-0  17091-4 0  9993
2 00877  65.0780 102.5481 0049498  83.6038 277.0694 14.59300550810997
Epoch (UTC): 21 August 2017 03:39:27
Eccentricity: 0.0049498
inclination: 65.0780°
perigee height: 660 km
apogee height: 730 km
right ascension of ascending node: 102.5481°
argument of perigee: 83.6038°
revolutions per day: 14.59300550
mean anomaly at epoch: 277.0694°
orbit number at epoch: 81099

The dashed part of the orbit path shows where the satellite is in the earth's shadow,  

DLR